Hourly Data Report for October 02, 2017

All times are specified in Local Standard Time (LST). Add 1 hour to adjust for Daylight Saving Time where and when it is observed.

SECHELT AUT
BRITISH COLUMBIA

49°27'28.788" N
123°42'54.945" W
86.20 m
1047172
71638
VOU

Download Data

Hourly Data (October 2017)
Hourly Data Report for October 2, 2017
Temp Definition
°C
Dew Point Temp Definition
°C
Rel Hum Definition
%
Wind Dir Definition
10's deg

Wind Spd Definition
km/h
Visibility Definition
km
Stn Press Definition
kPa
Hmdx Definition


Wind Chill Definition


Weather Definition


TIME
00:00 7.3 5.9 90 33 4   101.02     LegendNANA
01:00 8.2 6.2 88 32 7   101.04     LegendNANA
02:00 7.1 5.4 89 33 7   101.06     LegendNANA
03:00 6.7 5.2 90 33 6   101.07     LegendNANA
04:00 6.4 4.8 90 33 6   101.11     LegendNANA
05:00 6.2 4.7 90 33 6   101.12     LegendNANA
06:00 5.8 4.8 93 33 6   101.13     LegendNANA
07:00 7.0 5.4 90 32 9   101.14     LegendNANA
08:00 9.7 6.3 79 31 9   101.16     LegendNANA
09:00 12.0 5.2 63 30 7   101.18     LegendNANA
10:00 13.2 5.2 58 31 7   101.19     LegendNANA
11:00 14.0 7.6 65 29 7   101.22     LegendNANA
12:00 14.7 8.6 67 26 8   101.22     LegendNANA
13:00 15.0 8.9 67 28 9   101.23     LegendNANA
14:00 16.2 9.0 62 27 7   101.22     LegendNANA
15:00 16.7 7.3 54 29 6   101.22     LegendNANA
16:00 16.9 7.5 54 28 7   101.23     LegendNANA
17:00 15.8 3.8 45 31 3   101.23     LegendNANA
18:00 12.6 5.6 62 32 6   101.26     LegendNANA
19:00 11.7 4.3 60 34 6   101.31     LegendNANA
20:00 9.2 3.6 68 35 2   101.37     LegendNANA
21:00 9.6 3.4 66 33 7   101.44     LegendNANA
22:00 8.4 3.6 72 31 2   101.48     LegendNANA
23:00 8.3 2.6 67 33 7   101.48     LegendNANA

Notes on Data Quality.

Legend

  • E = Estimated
  • M = Missing
  • NA = Not Available
  • ‡ = Partner data that is not subject to review by the National Climate Archives
Date modified: